SYN002 EHAM-EGLL

Flight info

Callsign SYN002
Flight time 0h 49m
Altitude 24000
Route IDRID L980 LOGAN
Aircraft BCS3/M-SBDE2E3GIRWXY/LB1

Departure

Time 2026-05-05 18:31
Airport Amsterdam Airport Schiphol (EHAM)

Arrival

Time 2026-05-05 19:20
Airport London Heathrow Airport (EGLL)
Time Latitude Longitude Altitude Speed Heading
2026-05-05 17:53 52.30368 4.76193 0 ft 0 kts 58°
2026-05-05 18:16 52.30361 4.76173 0 ft 2 kts 58°
2026-05-05 18:16 52.30352 4.76148 -1 ft 3 kts 72°
2026-05-05 18:16 52.30349 4.76121 0 ft 2 kts 99°
2026-05-05 18:16 52.30354 4.76095 0 ft 2 kts 127°
2026-05-05 18:17 52.30360 4.76085 0 ft 0 kts 142°
2026-05-05 18:20 52.30350 4.76097 0 ft 4 kts 146°
2026-05-05 18:21 52.30305 4.76141 0 ft 10 kts 152°
2026-05-05 18:21 52.30257 4.76208 0 ft 7 kts 142°
2026-05-05 18:21 52.30254 4.76212 0 ft 0 kts 142°
2026-05-05 18:22 52.30234 4.76233 1 ft 7 kts 155°
2026-05-05 18:22 52.30168 4.76186 1 ft 15 kts 231°
2026-05-05 18:22 52.30091 4.75990 -2 ft 25 kts 239°
2026-05-05 18:23 52.29999 4.75751 -2 ft 22 kts 238°
2026-05-05 18:23 52.29918 4.75538 1 ft 21 kts 238°
2026-05-05 18:23 52.29845 4.75334 3 ft 15 kts 249°
2026-05-05 18:23 52.29861 4.75172 2 ft 16 kts 299°
2026-05-05 18:24 52.29932 4.75033 -1 ft 14 kts 312°
2026-05-05 18:24 52.29970 4.74897 2 ft 13 kts 278°
2026-05-05 18:24 52.29981 4.74771 -3 ft 9 kts 281°
2026-05-05 18:24 52.30015 4.74666 -3 ft 12 kts 307°
2026-05-05 18:25 52.30047 4.74544 -2 ft 11 kts 287°
2026-05-05 18:25 52.30055 4.74504 -3 ft 12 kts 288°
2026-05-05 18:25 52.30124 4.74346 -2 ft 9 kts 332°
2026-05-05 18:25 52.30190 4.74298 -1 ft 9 kts 326°
2026-05-05 18:26 52.30239 4.74245 2 ft 7 kts 332°
2026-05-05 18:26 52.30296 4.74214 3 ft 11 kts 347°
2026-05-05 18:26 52.30338 4.74172 2 ft 3 kts 289°
2026-05-05 18:26 52.30336 4.74108 3 ft 9 kts 246°
2026-05-05 18:27 52.30292 4.74009 1 ft 11 kts 223°
2026-05-05 18:27 52.30286 4.74000 1 ft 0 kts 221°
2026-05-05 18:28 52.30243 4.73943 -1 ft 11 kts 218°
2026-05-05 18:28 52.30196 4.73842 -1 ft 10 kts 264°
2026-05-05 18:28 52.30198 4.73792 -1 ft 0 kts 280°
2026-05-05 18:29 52.30199 4.73787 -1 ft 2 kts 285°
2026-05-05 18:29 52.30227 4.73744 -3 ft 9 kts 347°
2026-05-05 18:29 52.30281 4.73746 -5 ft 15 kts 358°
2026-05-05 18:29 52.30297 4.73748 -5 ft 0 kts
2026-05-05 18:30 52.30302 4.73748 -5 ft 2 kts
2026-05-05 18:30 52.30363 4.73755 -5 ft 25 kts
2026-05-05 18:30 52.30740 4.73785 1 ft 81 kts
2026-05-05 18:30 52.31479 4.73853 -1 ft 129 kts
2026-05-05 18:31 52.32341 4.73925 601 ft 121 kts
2026-05-05 18:31 52.33201 4.73531 1102 ft 131 kts 341°
2026-05-05 18:31 52.34089 4.72889 1816 ft 146 kts 341°
2026-05-05 18:31 52.35047 4.72191 2688 ft 159 kts 341°
2026-05-05 18:32 52.36102 4.71418 3505 ft 175 kts 341°
2026-05-05 18:32 52.37265 4.70591 4313 ft 191 kts 341°
2026-05-05 18:32 52.38538 4.69726 5123 ft 205 kts 341°
2026-05-05 18:32 52.39929 4.68836 5782 ft 227 kts 341°
2026-05-05 18:33 52.41533 4.67868 5922 ft 264 kts 341°
2026-05-05 18:33 52.43272 4.66841 5923 ft 262 kts 341°
2026-05-05 18:33 52.44977 4.65832 5919 ft 261 kts 341°
2026-05-05 18:33 52.46695 4.64814 5917 ft 263 kts 341°
2026-05-05 18:34 52.48404 4.63774 5908 ft 262 kts 336°
2026-05-05 18:34 52.49744 4.61829 5915 ft 267 kts 303°
2026-05-05 18:34 52.50195 4.58893 5926 ft 273 kts 269°
2026-05-05 18:34 52.49614 4.55917 5926 ft 279 kts 240°
2026-05-05 18:35 52.48497 4.53302 5921 ft 281 kts 234°
2026-05-05 18:35 52.47321 4.50748 5914 ft 280 kts 234°
2026-05-05 18:35 52.46110 4.48133 6610 ft 287 kts 234°
2026-05-05 18:35 52.44930 4.45587 7996 ft 279 kts 234°
2026-05-05 18:36 52.43741 4.43025 9022 ft 283 kts 234°
2026-05-05 18:36 52.42540 4.40436 10027 ft 287 kts 233°
2026-05-05 18:36 52.41303 4.37777 10690 ft 302 kts 233°
2026-05-05 18:36 52.40003 4.34983 11227 ft 317 kts 233°
2026-05-05 18:37 52.38645 4.32066 11927 ft 323 kts 233°
2026-05-05 18:37 52.37270 4.29121 12724 ft 327 kts 233°
2026-05-05 18:37 52.35882 4.26149 13542 ft 332 kts 233°
2026-05-05 18:37 52.34478 4.23145 14302 ft 335 kts 233°
2026-05-05 18:38 52.33056 4.20106 15037 ft 338 kts 233°
2026-05-05 18:38 52.31620 4.17043 15774 ft 341 kts 232°
2026-05-05 18:38 52.30171 4.13955 16491 ft 345 kts 232°
2026-05-05 18:38 52.28698 4.10819 17219 ft 349 kts 232°
2026-05-05 18:39 52.27211 4.07656 17948 ft 353 kts 232°
2026-05-05 18:39 52.25707 4.04462 18626 ft 356 kts 232°
2026-05-05 18:39 52.24193 4.01251 19306 ft 359 kts 232°
2026-05-05 18:39 52.22665 3.98013 19969 ft 361 kts 232°
2026-05-05 18:40 52.21127 3.94759 20609 ft 364 kts 232°
2026-05-05 18:40 52.19578 3.91486 21254 ft 366 kts 231°
2026-05-05 18:40 52.18018 3.88194 21880 ft 368 kts 231°
2026-05-05 18:40 52.16448 3.84884 22495 ft 371 kts 231°
2026-05-05 18:41 52.14866 3.81552 23150 ft 372 kts 231°
2026-05-05 18:41 52.13270 3.78196 23643 ft 377 kts 231°
2026-05-05 18:41 52.11649 3.74789 23889 ft 386 kts 231°
2026-05-05 18:41 52.10004 3.71339 23925 ft 381 kts 231°
2026-05-05 18:42 52.08398 3.67971 23922 ft 374 kts 231°
2026-05-05 18:42 52.06803 3.64632 23919 ft 377 kts 231°
2026-05-05 18:42 52.05185 3.61250 23920 ft 380 kts 231°
2026-05-05 18:42 52.03569 3.57873 23918 ft 377 kts 231°
2026-05-05 18:43 52.01962 3.54518 23916 ft 377 kts 231°
2026-05-05 18:43 52.00346 3.51145 23924 ft 379 kts 231°
2026-05-05 18:43 51.98752 3.47744 23918 ft 377 kts 232°
2026-05-05 18:43 51.97203 3.44318 23920 ft 377 kts 233°
2026-05-05 18:44 51.95657 3.40887 23920 ft 379 kts 232°
2026-05-05 18:44 51.94101 3.37439 23921 ft 378 kts 232°
2026-05-05 18:44 51.92549 3.34008 23924 ft 377 kts 232°
2026-05-05 18:44 51.90998 3.30582 23922 ft 378 kts 232°
2026-05-05 18:45 51.89438 3.27142 23925 ft 379 kts 232°
2026-05-05 18:45 51.87882 3.23719 23921 ft 377 kts 232°
2026-05-05 18:45 51.86331 3.20303 23926 ft 377 kts 233°
2026-05-05 18:45 51.85188 3.16480 23925 ft 383 kts 252°
2026-05-05 18:46 51.84682 3.12246 23931 ft 383 kts 260°
2026-05-05 18:46 51.84353 3.07974 23929 ft 383 kts 262°
2026-05-05 18:46 51.84064 3.03685 23930 ft 384 kts 262°
2026-05-05 18:46 51.83780 2.99397 23926 ft 383 kts 262°
2026-05-05 18:47 51.83496 2.95124 23928 ft 382 kts 262°
2026-05-05 18:47 51.83212 2.90850 23927 ft 383 kts 262°
2026-05-05 18:47 51.82926 2.86563 23929 ft 383 kts 262°
2026-05-05 18:47 51.82641 2.82296 23929 ft 382 kts 262°
2026-05-05 18:48 51.82353 2.78019 23931 ft 383 kts 262°
2026-05-05 18:48 51.82063 2.73739 23930 ft 382 kts 262°
2026-05-05 18:48 51.81774 2.69475 23928 ft 382 kts 262°
2026-05-05 18:48 51.81483 2.65205 23928 ft 382 kts 262°
2026-05-05 18:49 51.81189 2.60929 23932 ft 383 kts 262°
2026-05-05 18:49 51.80893 2.56658 23929 ft 382 kts 262°
2026-05-05 18:49 51.80596 2.52389 23933 ft 383 kts 262°
2026-05-05 18:49 51.80296 2.48115 23932 ft 383 kts 262°
2026-05-05 18:50 51.79995 2.43840 23933 ft 382 kts 262°
2026-05-05 18:50 51.79694 2.39576 23935 ft 383 kts 262°
2026-05-05 18:50 51.79390 2.35297 23933 ft 382 kts 262°
2026-05-05 18:50 51.79086 2.31036 23938 ft 382 kts 262°
2026-05-05 18:51 51.78783 2.26823 23937 ft 383 kts 262°
2026-05-05 18:51 51.78473 2.22509 23934 ft 381 kts 263°
2026-05-05 18:51 51.78211 2.18300 23933 ft 382 kts 264°
2026-05-05 18:51 51.77960 2.13971 23936 ft 382 kts 264°
2026-05-05 18:52 51.77716 2.09767 23934 ft 381 kts 264°
2026-05-05 18:52 51.77466 2.05494 23937 ft 382 kts 264°
2026-05-05 18:52 51.77213 2.01214 23937 ft 383 kts 264°
2026-05-05 18:52 51.76958 1.96929 23934 ft 383 kts 264°
2026-05-05 18:53 51.76701 1.92655 23933 ft 383 kts 264°
2026-05-05 18:53 51.76442 1.88363 23936 ft 385 kts 264°
2026-05-05 18:53 51.76180 1.84065 23938 ft 384 kts 264°
2026-05-05 18:53 51.75917 1.79773 23945 ft 384 kts 264°
2026-05-05 18:54 51.75651 1.75470 23943 ft 385 kts 264°
2026-05-05 18:54 51.75385 1.71173 23940 ft 385 kts 264°
2026-05-05 18:54 51.75116 1.66865 23943 ft 385 kts 264°
2026-05-05 18:54 51.74846 1.62568 23939 ft 386 kts 264°
2026-05-05 18:55 51.74572 1.58231 23639 ft 391 kts 264°
2026-05-05 18:55 51.74294 1.53871 23074 ft 390 kts 264°
2026-05-05 18:55 51.74016 1.49528 22519 ft 387 kts 264°
2026-05-05 18:55 51.73739 1.45229 22018 ft 383 kts 264°
2026-05-05 18:56 51.73466 1.41010 21859 ft 372 kts 264°
2026-05-05 18:56 51.73197 1.36872 21861 ft 373 kts 264°
2026-05-05 18:56 51.72920 1.32637 21694 ft 385 kts 264°
2026-05-05 18:56 51.72638 1.28345 21180 ft 384 kts 264°
2026-05-05 18:57 51.72356 1.24095 20659 ft 380 kts 264°
2026-05-05 18:57 51.72075 1.19871 20156 ft 376 kts 264°
2026-05-05 18:57 51.71795 1.15700 19661 ft 372 kts 264°
2026-05-05 18:57 51.71517 1.11570 19178 ft 369 kts 264°
2026-05-05 18:58 51.71241 1.07481 18699 ft 365 kts 264°
2026-05-05 18:58 51.70965 1.03433 18223 ft 362 kts 264°
2026-05-05 18:58 51.70691 0.99427 17694 ft 358 kts 264°
2026-05-05 18:58 51.70418 0.95454 17197 ft 354 kts 264°
2026-05-05 18:59 51.70147 0.91536 16776 ft 351 kts 264°
2026-05-05 18:59 51.69876 0.87636 16392 ft 349 kts 264°
2026-05-05 18:59 51.69605 0.83752 16004 ft 347 kts 264°
2026-05-05 18:59 51.69336 0.79912 15624 ft 344 kts 264°
2026-05-05 19:00 51.69066 0.76090 15239 ft 342 kts 264°
2026-05-05 19:00 51.68797 0.72287 14863 ft 340 kts 264°
2026-05-05 19:00 51.68529 0.68520 14489 ft 338 kts 264°
2026-05-05 19:00 51.68265 0.64822 14124 ft 336 kts 264°
2026-05-05 19:01 51.67994 0.61051 13744 ft 333 kts 264°
2026-05-05 19:01 51.67731 0.57404 13337 ft 331 kts 264°
2026-05-05 19:01 51.67465 0.53737 12950 ft 329 kts 264°
2026-05-05 19:01 51.67200 0.50087 12582 ft 328 kts 264°
2026-05-05 19:02 51.66935 0.46458 12213 ft 323 kts 264°
2026-05-05 19:02 51.66673 0.42900 11857 ft 316 kts 264°
2026-05-05 19:02 51.66420 0.39469 11519 ft 309 kts 264°
2026-05-05 19:02 51.66168 0.36071 11160 ft 301 kts 264°
2026-05-05 19:03 51.65924 0.32793 10840 ft 288 kts 264°
2026-05-05 19:03 51.65690 0.29655 10523 ft 276 kts 265°
2026-05-05 19:03 51.65467 0.26678 10221 ft 265 kts 265°
2026-05-05 19:03 51.65250 0.23788 9934 ft 255 kts 265°
2026-05-05 19:04 51.65037 0.20965 9639 ft 255 kts 265°
2026-05-05 19:04 51.64824 0.18137 9325 ft 254 kts 265°
2026-05-05 19:04 51.64612 0.15326 9005 ft 252 kts 265°
2026-05-05 19:04 51.64400 0.12542 8744 ft 249 kts 265°
2026-05-05 19:05 51.64189 0.09789 8480 ft 248 kts 265°
2026-05-05 19:05 51.63977 0.07043 8222 ft 247 kts 265°
2026-05-05 19:05 51.63765 0.04307 7999 ft 245 kts 265°
2026-05-05 19:05 51.63554 0.01611 7936 ft 243 kts 265°
2026-05-05 19:06 51.63339 -0.01105 7934 ft 246 kts 265°
2026-05-05 19:06 51.63124 -0.03830 7938 ft 245 kts 265°
2026-05-05 19:06 51.62911 -0.06554 7937 ft 245 kts 265°
2026-05-05 19:06 51.62696 -0.09268 8004 ft 245 kts 265°
2026-05-05 19:07 51.62483 -0.11986 8002 ft 245 kts 265°
2026-05-05 19:07 51.62271 -0.14707 8012 ft 245 kts 265°
2026-05-05 19:07 51.62059 -0.17430 8016 ft 245 kts 265°
2026-05-05 19:07 51.61848 -0.20149 8016 ft 245 kts 265°
2026-05-05 19:08 51.61637 -0.22870 8020 ft 245 kts 265°
2026-05-05 19:08 51.61426 -0.25591 8022 ft 245 kts 265°
2026-05-05 19:08 51.61218 -0.28313 8016 ft 245 kts 265°
2026-05-05 19:08 51.61010 -0.31032 7942 ft 245 kts 265°
2026-05-05 19:09 51.60806 -0.33714 7940 ft 245 kts 265°
2026-05-05 19:09 51.60599 -0.36433 7938 ft 245 kts 265°
2026-05-05 19:09 51.60391 -0.39148 7937 ft 245 kts 265°
2026-05-05 19:09 51.60183 -0.41867 7936 ft 245 kts 265°
2026-05-05 19:10 51.59975 -0.44586 7937 ft 245 kts 265°
2026-05-05 19:10 51.59767 -0.47305 7942 ft 245 kts 265°
2026-05-05 19:10 51.59559 -0.50029 7938 ft 245 kts 265°
2026-05-05 19:10 51.59352 -0.52750 7939 ft 245 kts 265°
2026-05-05 19:11 51.59146 -0.55465 7943 ft 245 kts 265°
2026-05-05 19:11 51.58940 -0.58205 7763 ft 248 kts 265°
2026-05-05 19:11 51.58734 -0.60936 7510 ft 245 kts 265°
2026-05-05 19:11 51.58531 -0.63641 7260 ft 243 kts 265°
2026-05-05 19:12 51.58329 -0.66333 7009 ft 242 kts 265°
2026-05-05 19:12 51.58128 -0.69021 6763 ft 242 kts 265°
2026-05-05 19:12 51.57929 -0.71701 6515 ft 241 kts 265°
2026-05-05 19:12 51.57732 -0.74382 6255 ft 241 kts 265°
2026-05-05 19:13 51.57334 -0.76962 6005 ft 240 kts 241°
2026-05-05 19:13 51.56134 -0.78758 5761 ft 239 kts 204°
2026-05-05 19:13 51.54526 -0.79217 5537 ft 233 kts 181°
2026-05-05 19:13 51.52920 -0.79265 5276 ft 230 kts 180°
2026-05-05 19:14 51.51331 -0.79305 5012 ft 226 kts 180°
2026-05-05 19:14 51.49804 -0.79351 4949 ft 213 kts 180°
2026-05-05 19:14 51.48370 -0.79395 4886 ft 201 kts 180°
2026-05-05 19:14 51.46976 -0.79394 4616 ft 200 kts 171°
2026-05-05 19:15 51.45742 -0.78503 4351 ft 195 kts 134°
2026-05-05 19:15 51.45085 -0.76686 4098 ft 187 kts 98°
2026-05-05 19:15 51.45226 -0.74679 3819 ft 181 kts 63°
2026-05-05 19:15 51.45792 -0.72881 3539 ft 181 kts 60°
2026-05-05 19:16 51.46371 -0.71116 3269 ft 180 kts 60°
2026-05-05 19:16 51.46952 -0.69347 2994 ft 178 kts 60°
2026-05-05 19:16 51.47310 -0.67433 2674 ft 181 kts 78°
2026-05-05 19:16 51.47441 -0.65420 2364 ft 179 kts 83°
2026-05-05 19:17 51.47487 -0.64111 2160 ft 174 kts 85°
2026-05-05 19:17 51.47600 -0.62249 1909 ft 163 kts 81°
2026-05-05 19:17 51.47669 -0.60443 1673 ft 161 kts 86°
2026-05-05 19:17 51.47674 -0.58666 1436 ft 156 kts 88°
2026-05-05 19:18 51.47674 -0.56993 1195 ft 145 kts 87°
2026-05-05 19:18 51.47685 -0.55414 986 ft 139 kts 87°
2026-05-05 19:18 51.47697 -0.53863 793 ft 139 kts 87°
2026-05-05 19:18 51.47706 -0.52305 595 ft 140 kts 87°
2026-05-05 19:19 51.47716 -0.50741 405 ft 140 kts 86°
2026-05-05 19:19 51.47730 -0.49204 200 ft 137 kts 86°
2026-05-05 19:19 51.47756 -0.47752 87 ft 111 kts 88°
2026-05-05 19:19 51.47745 -0.46698 94 ft 82 kts 89°
2026-05-05 19:20 51.47755 -0.45928 88 ft 61 kts 88°
2026-05-05 19:20 51.47752 -0.45524 87 ft 0 kts 118°
2026-05-05 19:20 51.47742 -0.45506 87 ft 6 kts 131°
2026-05-05 19:20 51.47689 -0.45470 88 ft 10 kts 170°
2026-05-05 19:21 51.47640 -0.45465 87 ft 0 kts 179°
2026-05-05 19:22 51.47628 -0.45460 87 ft 4 kts 159°
2026-05-05 19:22 51.47608 -0.45454 88 ft 4 kts 182°
2026-05-05 19:22 51.47555 -0.45461 89 ft 10 kts 172°
2026-05-05 19:23 51.47509 -0.45340 92 ft 17 kts 96°
2026-05-05 19:23 51.47503 -0.45130 90 ft 19 kts 91°
2026-05-05 19:23 51.47507 -0.44911 90 ft 21 kts 89°
2026-05-05 19:23 51.47512 -0.44682 91 ft 16 kts 94°
2026-05-05 19:24 51.47480 -0.44573 93 ft 6 kts 145°
2026-05-05 19:24 51.47438 -0.44560 89 ft 10 kts 179°
2026-05-05 19:24 51.47340 -0.44554 87 ft 18 kts 178°
2026-05-05 19:24 51.47207 -0.44552 87 ft 20 kts 180°
2026-05-05 19:25 51.47065 -0.44556 88 ft 18 kts 182°
2026-05-05 19:25 51.46954 -0.44563 88 ft 19 kts 182°
2026-05-05 19:25 51.46882 -0.44576 90 ft 8 kts 206°
2026-05-05 19:26 51.46860 -0.44629 91 ft 6 kts 259°
2026-05-05 19:26 51.46858 -0.44665 91 ft 0 kts 264°